This demonstration page uses our WeatherBlox Daily Observations layout. Learn more.

Left ArrowRight Arrow

41.86663, -103.66717

Hourly Observations for June 20, 2021

Temp ( °F °C ) Dew Point ( °F °C ) Humidity (%) Winds ( mph kmh ) Pressure ( in mb ) Visibility ( mi km ) Precip ( " mm )
12:53 am 00:53 Clear 63 17.2 55 12.8 76 76 E 8 13 29.58 1002 10 16 N/A
1:53 am 01:53 Clear 61 16.1 55 12.8 81 81 E 7 11 29.56 1001 10 16 N/A
2:53 am 02:53 Clear 59 15 54 12.2 83 83 NNW 3 6 29.56 1001 10 16 N/A
3:53 am 03:53 Clear 56 13.3 53 11.7 90 90 WNW 8 13 29.60 1002 9 14 N/A
4:53 am 04:53 Clear 56 13.3 52 11.1 87 87 W 7 11 29.65 1004 9 14 N/A
5:53 am 05:53 Sunny 59 15 53 11.7 81 81 NNW 8 13 29.72 1007 10 16 N/A
6:53 am 06:53 Sunny 65 18.3 48 8.9 54 54 NW 10 17 29.76 1008 10 16 N/A
7:53 am 07:53 Sunny 69 20.6 45 7.2 42 42 NW 13 20 29.77 1008 10 16 N/A
8:53 am 08:53 Sunny 74 23.3 46 7.8 37 37 NW 15 24 29.76 1008 10 16 N/A
9:53 am 09:53 Sunny 78 25.6 44 6.7 30 30 NNW 17 28 29.75 1008 10 16 N/A
10:53 am 10:53 Sunny 80 26.7 43 6.1 27 27 N 17 28 29.76 1008 10 16 N/A
11:53 am 11:53 Sunny 82 27.8 44 6.7 26 26 N 12 19 29.77 1008 10 16 N/A
12:53 pm 12:53 Sunny 83 28.3 42 5.6 24 24 N 13 20 29.77 1008 10 16 N/A
1:53 pm 13:53 Mostly Sunny 81 27.2 43 6.1 26 26 N 23 37 29.78 1009 10 16 N/A
2:53 pm 14:53 Sunny 84 28.9 43 6.1 24 24 NNW 20 31 29.80 1009 10 16 N/A
3:53 pm 15:53 Mostly Cloudy 82 27.8 45 7.2 27 27 NNE 20 31 29.83 1010 10 16 N/A
4:53 pm 16:53 Mostly Cloudy 74 23.3 49 9.4 41 41 NNE 20 31 29.88 1012 10 16 N/A
5:53 pm 17:53 Cloudy 71 21.7 48 8.9 44 44 NNE 17 28 29.90 1013 10 16 N/A
6:53 pm 18:53 Cloudy with Light Rain 64 17.8 52 11.1 65 65 NNE 13 20 29.94 1014 6 10 0.01 0.25
7:53 pm 19:53 Cloudy with Light Rain 62 16.7 52 11.1 70 70 NNE 10 17 29.97 1015 10 16 0.03 0.76
8:53 pm 20:53 Cloudy with Nearby Thunderstorms 60 15.6 53 11.7 78 78 W 6 9 30.02 1017 10 16 0.00 0.00
9:12 pm 21:12 Cloudy with Light Rain 60 15.6 53 11.7 78 78 NNE 5 7 29.98 1015 6 10 0.02 0.51
9:53 pm 21:53 Cloudy with Rain 59 15 57 13.9 93 93 N 3 6 30.02 1017 5 8 0.07 1.78
10:53 pm 22:53 Cloudy with Rain 58 14.4 56 13.3 93 93 W 8 13 30.06 1018 5 8 0.07 1.78
11:53 pm 23:53 Cloudy with Light Rain 57 13.9 56 13.3 96 96 W 5 7 30.05 1018 6 10 0.15 3.81

Powered by AerisWeather